Regional Weather Roundup
Issued by NWS

Home | Current Version | Previous Version | Text Only | Print | Product List | Glossary On
Versions: 1 2 3 4 5 6 7 8 9 10 11 12 13 14 15 16 17 18 19 20 21 22 23 24 25 26 27 28 29 30 31 32 33 34 35 36 37 38 39 40 41 42 43 44 45 46 47 48 49 50
000
ASUS43 KBIS 211410
RWRND

NORTH DAKOTA REGIONAL WEATHER ROUNDUP
NATIONAL WEATHER SERVICE BISMARCK ND
800 AM CST SUN JAN 21 2018

NOTE: "FAIR" INDICATES FEW OR NO CLOUDS BELOW 12,000 FEET WITH NO
SIGNIFICANT WEATHER AND/OR OBSTRUCTIONS TO VISIBILITY.


NDZ001>003-009>011-017-211500-
NORTHWEST NORTH DAKOTA

CITY           SKY/WX    TMP DP  RH WIND       PRES   REMARKS
WILLISTON      CLEAR      6   3  87 CALM      30.00R
MINOT          CLOUDY    15  11  83 W5        30.00R WCI   8
MINOT AFB      CLEAR      8   5  86 SW5       30.00R WCI   0
$$

NDZ018>021-031>035-040>046-211500-
SOUTHWEST NORTH DAKOTA

CITY           SKY/WX    TMP DP  RH WIND       PRES   REMARKS
BISMARCK       PTCLDY    13  12  96 CALM      30.02S
DICKINSON      CLEAR     19  14  81 W12       29.96R WCI   7
GARRISON         N/A      6   3  87 N5        30.00S WCI  -3
HETTINGER ARPT CLOUDY    18  14  84 CALM      29.99R
$$

NDZ004>008-012>016-024-026-027-054-211500-
NORTHEAST NORTH DAKOTA

CITY           SKY/WX    TMP DP  RH WIND       PRES   REMARKS
GRAND FORKS    CLOUDY    22  20  92 N9        30.04R WCI  12
GRND FRKS AFB  CLOUDY    22  20  94 N7        30.04R WCI  13
DEVILS LAKE    MOCLDY     7   5  92 CALM      30.02S
$$

NDZ022-023-025-028>030-036>039-047>053-211500-
SOUTHEAST NORTH DAKOTA

CITY           SKY/WX    TMP DP  RH WIND       PRES   REMARKS
FARGO          FAIR      17  15  92 N8        30.01S WCI   7
JAMESTOWN      CLEAR     15  13  91 N7        29.99S WCI   5
$$




USA.gov is the U.S. government's official web portal to all federal, state and local government web resources and services.